This is the latest recevied weather packets stored in our database for station/object AD6NH. If no packets are shown the sender has not sent any weather packets the latest 10 day(s).
| Time | Temp. | Humidity | Pressure | Rain* | Wind** | Luminosity | Snow |
|---|---|---|---|---|---|---|---|
| 1778120223 | 20.56° C | 57% | 1016.6 hPa | 0 mm | - | - | - |
| 1778119623 | 21.11° C | 55% | 1016.4 hPa | 0 mm | - | - | - |
| 1778119023 | 21.67° C | 55% | 1016.4 hPa | 0 mm | - | - | - |
| 1778118423 | 21.67° C | 59% | 1016.4 hPa | 0 mm | - | - | - |
| 1778117823 | 21.67° C | 57% | 1016.3 hPa | 0 mm | - | - | - |
| 1778117223 | 21.67° C | 56% | 1016.2 hPa | 0 mm | - | - | - |
| 1778116623 | 21.67° C | 57% | 1016.2 hPa | 0 mm | - | - | - |
| 1778116023 | 21.67° C | 54% | 1016.1 hPa | 0 mm | - | - | - |
| 1778115423 | 22.22° C | 49% | 1016.1 hPa | 0 mm | - | - | - |
| 1778114823 | 22.22° C | 49% | 1016.1 hPa | 0 mm | - | - | - |
| 1778114223 | 22.22° C | 48% | 1016.2 hPa | 0 mm | - | - | - |
| 1778113623 | 22.78° C | 51% | 1016.1 hPa | 0 mm | - | - | - |
| 1778113023 | 22.78° C | 50% | 1016.1 hPa | 0 mm | - | - | - |
| 1778112423 | 23.33° C | 50% | 1016 hPa | 0 mm | - | - | - |
| 1778111823 | 22.78° C | 50% | 1016 hPa | 0 mm | - | - | - |
| 1778111223 | 22.78° C | 50% | 1016.1 hPa | 0 mm | - | - | - |
| 1778110623 | 22.78° C | 50% | 1016.1 hPa | 0 mm | - | - | - |
| 1778110023 | 22.78° C | 49% | 1016.1 hPa | 0 mm | - | - | - |
| 1778109423 | 23.33° C | 48% | 1016.1 hPa | 0 mm | - | - | - |
| 1778108823 | 22.22° C | 50% | 1016.3 hPa | 0 mm | - | - | - |
| 1778108223 | 22.78° C | 50% | 1016.5 hPa | 0 mm | - | - | - |
| 1778107623 | 23.33° C | 48% | 1016.5 hPa | 0 mm | - | - | - |
| 1778107023 | 23.33° C | 49% | 1016.6 hPa | 0 mm | - | - | - |
| 1778106423 | 22.78° C | 48% | 1016.6 hPa | 0 mm | - | - | - |
| 1778105823 | 23.33° C | 46% | 1016.8 hPa | 0 mm | - | - | - |
* Rain latest hour (hover to see other rain measurements)
** Current wind speed in m/s (hover to see current wind gust speed)